Epoch = 2015 June 27.0 TT T = 2015 June 26.00242 TT Peri. = 141.06082 e = 0.2748442 Node = 291.81136 2000.0 q = 3.4323713 AU Incl. = 26.37371 a = 4.7332882 AU n = 0.09571052 P = 10.30 years
m1 = 12.0 + 5 logΔ + 10.0 log r